Location: Newark
(44.6028°N, 124.0883°W)
Time: 20:05:23
(UTC+00:00)

Vanguard 1 - Pass Details

Date: 28 October 2019
Orbit: 652 x 3831 km, 34.2° (Epoch: 21 November)

Event Time Altitude Azimuth Distance (km) Brightness Sun altitude
Rises 05:35:06 0° 268° (W) 4,332 13.9 -45.8°
Reaches altitude 10° 05:37:46 10° 259° (W) 3,679 13.3 -46.2°
Enters shadow 05:42:32 29° 232° (SW) 2,978 12.4 -46.9°
Maximum altitude 05:46:42 37° 196° (SSW) 3,050 - -47.5°
Drops below altitude 10° 06:01:40 10° 138° (SE) 6,106 - -49.6°
Sets 06:07:47 0° 132° (SE) 7,519 - -50.4°
